Stations météo

réclame
Mon MeteoGroup
Cassley, Grande-Bretagne (99003): Température de l'air & dewpoint: 16.04.2018 23:00:00 - 22.04.2018 23:00:00 (BST)Cassley, Grande-Bretagne (99003): Quantités de précipitations: 16.04.2018 23:00:00 - 22.04.2018 23:00:00 (BST)
Date & Time tt [°C] td [°C] rr [mm]
22.04.2018 23:00:00 6,7 6,2 -
22.04.2018 22:00:00 7,0 6,2 0,2
22.04.2018 21:00:00 7,4 5,6 0,2
22.04.2018 20:00:00 7,7 4,8 0,0
22.04.2018 19:00:00 9,5 4,5 0,0
22.04.2018 18:00:00 10,2 4,1 0,0
22.04.2018 17:00:00 9,7 4,6 0,0
22.04.2018 16:00:00 8,6 5,3 0,0
22.04.2018 15:00:00 9,2 6,4 0,6
22.04.2018 14:00:00 9,8 7,7 0,4
22.04.2018 13:00:00 9,7 8,0 0,4
22.04.2018 12:00:00 9,5 7,8 0,6
22.04.2018 11:00:00 7,6 6,6 0,4
22.04.2018 10:00:00 7,7 6,7 0,4
22.04.2018 09:00:00 7,1 5,8 0,0
22.04.2018 08:00:00 6,5 5,8 0,0
22.04.2018 07:00:00 5,5 4,9 0,0
22.04.2018 06:00:00 5,0 4,2 0,0
22.04.2018 05:00:00 4,9 3,9 0,0
22.04.2018 04:00:00 5,0 3,9 0,0
22.04.2018 03:00:00 6,0 4,4 0,0
22.04.2018 02:00:00 6,9 5,2 0,0
22.04.2018 01:00:00 7,4 4,8 0,0
22.04.2018 00:00:00 7,7 5,2 0,0
21.04.2018 23:00:00 8,3 5,6 0,0
21.04.2018 22:00:00 9,2 5,8 0,0
21.04.2018 21:00:00 10,0 5,6 0,0
21.04.2018 20:00:00 11,4 5,6 0,0
21.04.2018 19:00:00 14,6 4,5 0,0
21.04.2018 18:00:00 15,1 4,3 0,0
21.04.2018 17:00:00 14,9 4,1 0,0
21.04.2018 16:00:00 14,8 4,3 0,0
21.04.2018 15:00:00 15,0 4,4 0,0
21.04.2018 14:00:00 14,9 4,7 0,0
21.04.2018 13:00:00 14,8 5,3 0,0
21.04.2018 12:00:00 13,0 5,1 0,0
21.04.2018 11:00:00 10,7 5,1 0,0
21.04.2018 10:00:00 9,2 5,4 0,0
21.04.2018 09:00:00 7,0 4,0 0,0
21.04.2018 08:00:00 5,5 4,2 0,0
21.04.2018 07:00:00 4,8 4,0 0,0
21.04.2018 06:00:00 4,8 2,9 0,0
21.04.2018 05:00:00 5,8 3,6 0,0
21.04.2018 04:00:00 5,2 2,8 0,0
21.04.2018 03:00:00 6,5 4,0 0,0
21.04.2018 02:00:00 6,0 3,2 0,0
21.04.2018 01:00:00 7,4 4,8 0,0
21.04.2018 00:00:00 8,0 5,1 0,0
20.04.2018 23:00:00 8,2 5,0 0,0
20.04.2018 22:00:00 8,5 5,3 0,0
20.04.2018 21:00:00 8,9 4,8 0,0
20.04.2018 20:00:00 9,1 5,0 0,0
20.04.2018 19:00:00 9,6 5,0 0,0
20.04.2018 18:00:00 10,3 4,8 0,0
20.04.2018 17:00:00 9,9 6,2 0,4
20.04.2018 16:00:00 11,9 7,5 0,2
20.04.2018 15:00:00 10,3 7,7 1,4
20.04.2018 14:00:00 11,4 7,0 0,2
20.04.2018 13:00:00 12,3 6,4 0,0
20.04.2018 12:00:00 11,8 7,0 0,2
20.04.2018 11:00:00 10,8 7,6 0,4
20.04.2018 10:00:00 9,9 7,4 1,2
20.04.2018 09:00:00 10,2 5,7 0,2
20.04.2018 08:00:00 9,1 5,7 0,0
20.04.2018 07:00:00 7,1 5,0 0,0
20.04.2018 06:00:00 5,6 3,8 0,0
20.04.2018 05:00:00 6,3 4,1 0,0
20.04.2018 04:00:00 6,6 4,4 0,0
20.04.2018 03:00:00 6,3 4,1 0,0
20.04.2018 02:00:00 8,0 3,2 0,0
20.04.2018 01:00:00 10,8 5,0 0,0
20.04.2018 00:00:00 8,9 4,9 0,0
19.04.2018 23:00:00 6,4 3,4 0,0
19.04.2018 22:00:00 7,0 4,6 0,0
19.04.2018 21:00:00 9,2 6,7 0,0
19.04.2018 20:00:00 11,4 8,0 0,0
19.04.2018 19:00:00 13,2 9,0 0,0
19.04.2018 18:00:00 13,9 7,8 0,0
19.04.2018 17:00:00 14,2 8,3 0,0
19.04.2018 16:00:00 14,4 8,9 0,0
19.04.2018 15:00:00 14,7 8,1 0,0
19.04.2018 14:00:00 12,1 9,3 0,0
19.04.2018 13:00:00 12,4 9,6 0,0
19.04.2018 12:00:00 13,7 9,1 0,0
19.04.2018 11:00:00 15,2 9,0 0,0
19.04.2018 10:00:00 13,4 9,6 0,0
19.04.2018 09:00:00 13,8 9,9 -
19.04.2018 08:00:00 - - -
19.04.2018 07:00:00 - - -
19.04.2018 06:00:00 - - -
19.04.2018 05:00:00 - - -
19.04.2018 04:00:00 - - -
19.04.2018 03:00:00 - - -
19.04.2018 02:00:00 13,7 9,3 0,0
19.04.2018 01:00:00 14,5 9,2 0,0
19.04.2018 00:00:00 14,6 8,9 0,0
18.04.2018 23:00:00 14,7 8,8 0,0
18.04.2018 22:00:00 14,2 8,8 0,0
18.04.2018 21:00:00 13,4 9,3 0,0
18.04.2018 20:00:00 14,6 8,9 0,0
18.04.2018 19:00:00 15,6 8,5 0,0
18.04.2018 18:00:00 15,8 8,6 0,0
18.04.2018 17:00:00 17,2 6,8 0,0
18.04.2018 16:00:00 16,9 7,3 0,0
18.04.2018 15:00:00 17,6 6,8 0,0
18.04.2018 14:00:00 16,9 7,1 0,0
18.04.2018 13:00:00 16,3 6,4 0,0
18.04.2018 12:00:00 16,9 6,7 0,0
18.04.2018 11:00:00 14,6 6,6 0,0
18.04.2018 10:00:00 14,1 7,4 0,0
18.04.2018 09:00:00 9,8 7,7 0,0
18.04.2018 08:00:00 7,1 6,2 0,0
18.04.2018 07:00:00 6,2 5,3 0,0
18.04.2018 06:00:00 7,4 6,1 0,6
18.04.2018 05:00:00 7,3 5,7 0,0
18.04.2018 04:00:00 9,0 5,6 0,0
18.04.2018 03:00:00 7,6 5,2 0,0
18.04.2018 02:00:00 8,9 6,4 0,0
18.04.2018 01:00:00 8,3 5,5 0,0
18.04.2018 00:00:00 10,2 6,3 0,0
17.04.2018 23:00:00 9,5 5,9 0,0
17.04.2018 22:00:00 8,7 6,0 0,0
17.04.2018 21:00:00 10,0 6,8 0,0
17.04.2018 20:00:00 11,8 7,1 0,0
17.04.2018 19:00:00 13,3 6,4 0,0
17.04.2018 18:00:00 14,3 7,0 0,0
17.04.2018 17:00:00 13,4 9,7 1,0
17.04.2018 16:00:00 16,4 6,4 0,0
17.04.2018 15:00:00 16,8 5,7 0,0
17.04.2018 14:00:00 16,5 5,2 0,0
17.04.2018 13:00:00 16,1 5,2 0,0
17.04.2018 12:00:00 15,7 7,9 0,0
17.04.2018 11:00:00 14,5 7,8 0,0
17.04.2018 10:00:00 12,9 6,9 0,0
17.04.2018 09:00:00 13,0 7,0 0,0
17.04.2018 08:00:00 9,0 5,5 0,0
17.04.2018 07:00:00 8,7 5,3 0,0
17.04.2018 06:00:00 9,1 5,4 0,0
17.04.2018 05:00:00 9,2 5,3 0,0
17.04.2018 04:00:00 9,7 5,1 0,0
17.04.2018 03:00:00 9,6 5,3 0,0
17.04.2018 02:00:00 8,0 5,3 0,2
17.04.2018 01:00:00 8,8 4,6 0,0
17.04.2018 00:00:00 9,4 4,7 0,0
16.04.2018 23:00:00 9,2 4,9 0,2

tt = Température de l'air
td = dewpoint
rr = Quantités de précipitations

stations d'obs. à proximité